Harvard, Illinois, United States (60033)
Lat: 42.42N, Lon: 88.61W
Wx Zone: ILZ005
Local Info
Past Weather Observations for Today

NOTE: This archive is for the closest National Weather Service station to Harvard. Information may differ from the station used for current weather conditions.

Time Weather Temperature Dewpoint Humidity Pressure Winds Precip Visibility
08:55
Partly Cloudy
48°F / 9°C 36°F / 2°C 62% 30.12 in
(1020 mb)
SSW 18.4 mph
(SSW 30 kph)
- 10SM
08:35
Mostly Cloudy
46°F / 8°C 36°F / 2°C 66% 30.12 in
(1020 mb)
SW 20.7 mph
(SW 33 kph)
- 10SM
08:15
Mostly Cloudy
46°F / 8°C 34°F / 1°C 62% 30.12 in
(1020 mb)
SSW 19.6 mph
(SSW 32 kph)
- 10SM
07:55
Mostly Cloudy
46°F / 8°C 32°F / 0°C 57% 30.09 in
(1019 mb)
SW 18.4 mph
(SW 30 kph)
- 10SM
07:35
Partly Cloudy
46°F / 8°C 32°F / 0°C 57% 30.09 in
(1019 mb)
SSW 23 mph
(SSW 37 kph)
- 10SM
07:15
Mostly Cloudy
45°F / 7°C 32°F / 0°C 61% 30.09 in
(1019 mb)
SSW 17.3 mph
(SSW 28 kph)
- 10SM
06:55
Partly Cloudy
43°F / 6°C 30°F / -1°C 61% 30.09 in
(1019 mb)
SSW 13.8 mph
(SSW 22 kph)
- 10SM
06:35
Clear
43°F / 6°C 30°F / -1°C 61% 30.09 in
(1019 mb)
SSW 8.1 mph
(SSW 13 kph)
- 10SM
06:15
Partly Cloudy
41°F / 5°C 28°F / -2°C 61% 30.09 in
(1019 mb)
S 10.4 mph
(S 17 kph)
- 10SM
05:55
Partly Cloudy
41°F / 5°C 28°F / -2°C 61% 30.09 in
(1019 mb)
S 9.2 mph
(S 15 kph)
- 10SM
05:35
Overcast
43°F / 6°C 28°F / -2°C 57% 30.06 in
(1018 mb)
S 11.5 mph
(S 19 kph)
- 10SM
05:15
Overcast
43°F / 6°C 28°F / -2°C 57% 30.06 in
(1018 mb)
S 11.5 mph
(S 19 kph)
- 10SM
04:55
Overcast
41°F / 5°C 27°F / -3°C 57% 30.06 in
(1018 mb)
S 10.4 mph
(S 17 kph)
- 10SM
04:35
Overcast
41°F / 5°C 27°F / -3°C 57% 30.06 in
(1018 mb)
S 8.1 mph
(S 13 kph)
- 10SM
04:15
Overcast
41°F / 5°C 27°F / -3°C 57% 30.06 in
(1018 mb)
S 8.1 mph
(S 13 kph)
- 10SM
03:55
Overcast
41°F / 5°C 27°F / -3°C 57% 30.06 in
(1018 mb)
S 11.5 mph
(S 19 kph)
- 10SM
03:35
Overcast
41°F / 5°C 27°F / -3°C 57% 30.09 in
(1019 mb)
S 12.7 mph
(S 20 kph)
- 10SM
03:15
Mostly Cloudy
41°F / 5°C 27°F / -3°C 57% 30.09 in
(1019 mb)
SSE 12.7 mph
(SSE 20 kph)
- 10SM
02:55
Partly Cloudy
41°F / 5°C 27°F / -3°C 57% 30.09 in
(1019 mb)
SSE 11.5 mph
(SSE 19 kph)
- 10SM
02:35
Partly Cloudy
41°F / 5°C 27°F / -3°C 57% 30.09 in
(1019 mb)
SSE 11.5 mph
(SSE 19 kph)
- 10SM
02:15
Partly Cloudy
41°F / 5°C 27°F / -3°C 57% 30.09 in
(1019 mb)
SSE 10.4 mph
(SSE 17 kph)
- 10SM
01:55
Mostly Cloudy
41°F / 5°C 27°F / -3°C 57% 30.09 in
(1019 mb)
SW 10.4 mph
(SW 17 kph)
- 10SM
01:35
Mostly Cloudy
41°F / 5°C 27°F / -3°C 57% 30.09 in
(1019 mb)
SSE 8.1 mph
(SSE 13 kph)
- 10SM
01:15
Mostly Cloudy
41°F / 5°C 27°F / -3°C 57% 30.12 in
(1020 mb)
SW 8.1 mph
(SW 13 kph)
- 10SM
00:55
Mostly Cloudy
39°F / 4°C 27°F / -3°C 61% 30.12 in
(1020 mb)
SW 6.9 mph
(SW 11 kph)
- 10SM
00:35
Partly Cloudy
37°F / 3°C 28°F / -2°C 70% 30.12 in
(1020 mb)
SW 8.1 mph
(SW 13 kph)
- 10SM
00:15
Clear
36°F / 2°C 28°F / -2°C 75% 30.12 in
(1020 mb)
SW 5.8 mph
(SW 9 kph)
- 10SM
Time Weather Temperature Dewpoint Humidity Pressure Winds Precip Visibility


Weather for websites

WeatherForYou.com, LLC is not responsible for any damages or problems caused by this service. Current weather conditions are obtained from the closest station including government and personal stations which may have varying degrees of accuracy. Weather forecasts are derived from the NOAA NDFD. Like all things, this site belongs to Jesus Christ... He just trusts me to maintain it. If you have any questions or comments email webmaster@weatherforyou.com

Copyright © 2014, WeatherForYou.com LLC. All rights reserved.